| time (UTC) | temp F | wind direction | speed MPH | gust MPH | rain 1hr in | rain 24hr in | rain mn in | humidity % | barometer mb |
| 20260905174501 | 82 | 213 | 0.0 | 3.0 | 0.00 | 0.16 | 0.16 | 60 | 1009.9 |
| 20260905173044 | 82 | 28 | 1.0 | 4.0 | 0.00 | 0.16 | 0.16 | 57 | 1010.0 |
| 20260905171521 | 81 | 37 | 1.0 | 5.0 | 0.00 | 0.16 | 0.16 | 59 | 1010.0 |
| 20260905170108 | 79 | 95 | 0.0 | 5.0 | 0.00 | 0.16 | 0.16 | 61 | 1010.1 |
| 20260905164526 | 79 | 210 | 1.0 | 4.0 | 0.00 | 0.16 | 0.16 | 59 | 1010.3 |
| 20260905163107 | 80 | 318 | 1.0 | 5.0 | 0.00 | 0.16 | 0.16 | 61 | 1010.4 |
| 20260905161539 | 78 | 27 | 1.0 | 8.0 | 0.00 | 0.16 | 0.16 | 63 | 1010.4 |
| 20260905160009 | 78 | 204 | 1.0 | 4.0 | 0.00 | 0.16 | 0.16 | 62 | 1010.5 |
| 20260905154551 | 78 | 28 | 1.0 | 7.0 | 0.00 | 0.16 | 0.16 | 64 | 1010.6 |
| 20260905153023 | 77 | 334 | 1.0 | 6.0 | 0.00 | 0.16 | 0.16 | 63 | 1010.6 |
| 20260905151557 | 77 | 153 | 2.0 | 8.0 | 0.00 | 0.16 | 0.16 | 62 | 1010.8 |
| 20260905150027 | 78 | 34 | 0.0 | 8.0 | 0.00 | 0.16 | 0.16 | 64 | 1010.7 |
| 20260905144555 | 78 | 5 | 2.0 | 7.0 | 0.00 | 0.16 | 0.16 | 62 | 1010.5 |
| 20260905143026 | 78 | 266 | 1.0 | 9.0 | 0.00 | 0.16 | 0.16 | 64 | 1010.2 |
| 20260905141603 | 76 | 58 | 1.0 | 8.0 | 0.00 | 0.16 | 0.16 | 68 | 1010.1 |
| 20260905140033 | 76 | 276 | 2.0 | 9.0 | 0.00 | 0.16 | 0.16 | 70 | 1010.0 |
| 20260905134503 | 75 | 66 | 2.0 | 8.0 | 0.00 | 0.16 | 0.16 | 71 | 1010.1 |
| 20260905133043 | 75 | 66 | 2.0 | 7.0 | 0.00 | 0.16 | 0.16 | 74 | 1010.0 |
| 20260905131514 | 74 | 8 | 1.0 | 7.0 | 0.00 | 0.16 | 0.16 | 77 | 1010.0 |
| 20260905130050 | 73 | 299 | 1.0 | 6.0 | 0.00 | 0.16 | 0.16 | 77 | 1010.0 |
| 20260905124518 | 74 | 195 | 1.0 | 6.0 | 0.00 | 0.16 | 0.16 | 77 | 1010.0 |
| 20260905123110 | 74 | 214 | 2.0 | 6.0 | 0.00 | 0.16 | 0.16 | 77 | 1010.1 |
| 20260905121545 | 73 | 15 | 1.0 | 4.0 | 0.00 | 0.16 | 0.16 | 79 | 1010.0 |
| 20260905120009 | 72 | 300 | 2.0 | 5.0 | 0.00 | 0.16 | 0.16 | 79 | 1010.0 |
| 20260905114550 | 72 | 25 | 0.0 | 4.0 | 0.00 | 0.16 | 0.16 | 82 | 1009.8 |
| 20260905113017 | 72 | 297 | 1.0 | 6.0 | 0.00 | 0.16 | 0.16 | 84 | 1009.7 |
| 20260905111606 | 72 | 250 | 1.0 | 6.0 | 0.00 | 0.16 | 0.16 | 85 | 1009.5 |
| 20260905110031 | 72 | 193 | 2.0 | 5.0 | 0.00 | 0.16 | 0.16 | 86 | 1009.3 |
| 20260905104613 | 72 | 31 | 2.0 | 5.0 | 0.00 | 0.16 | 0.16 | 87 | 1009.1 |
| 20260905103033 | 72 | 230 | 0.0 | 2.0 | 0.00 | 0.16 | 0.16 | 89 | 1008.9 |
| 20260905101615 | 72 | 270 | 0.0 | 3.0 | 0.00 | 0.16 | 0.16 | 91 | 1008.9 |
| 20260905100043 | 72 | 238 | 0.0 | 3.0 | 0.00 | 0.16 | 0.16 | 92 | 1008.9 |
| 20260905094511 | 72 | 212 | 0.0 | 1.0 | 0.00 | 0.16 | 0.16 | 93 | 1008.7 |
| 20260905093053 | 72 | 50 | 0.0 | 2.0 | 0.00 | 0.16 | 0.16 | 93 | 1008.7 |
| 20260905091530 | 73 | 218 | 0.0 | 3.0 | 0.00 | 0.16 | 0.16 | 93 | 1008.7 |
| 20260905090135 | 73 | 20 | 0.0 | 2.0 | 0.00 | 0.16 | 0.16 | 93 | 1008.9 |
| 20260905084532 | 73 | 41 | 1.0 | 3.0 | 0.00 | 0.16 | 0.16 | 93 | 1008.8 |
| 20260905083110 | 73 | 94 | 0.0 | 0.0 | 0.00 | 0.16 | 0.16 | 93 | 1008.7 |
| 20260905081542 | 73 | 94 | 0.0 | 1.0 | 0.00 | 0.16 | 0.16 | 93 | 1008.8 |
| 20260905080016 | 73 | 238 | 0.0 | 3.0 | 0.00 | 0.16 | 0.16 | 93 | 1008.9 |
| 20260905074551 | 73 | 23 | 0.0 | 3.0 | 0.00 | 0.24 | 0.16 | 93 | 1008.8 |
| 20260905073023 | 73 | 40 | 1.0 | 3.0 | 0.02 | 0.24 | 0.16 | 93 | 1008.9 |
| 20260905071616 | 73 | 212 | 0.0 | 0.0 | 0.09 | 0.24 | 0.16 | 93 | 1008.8 |
| 20260905070047 | 73 | 195 | 0.0 | 2.0 | 0.11 | 0.24 | 0.16 | 93 | 1008.9 |
| 20260905064511 | 73 | 281 | 0.0 | 1.0 | 0.11 | 0.25 | 0.16 | 92 | 1009.2 |
| 20260905063049 | 73 | 38 | 0.0 | 2.0 | 0.09 | 0.23 | 0.14 | 92 | 1009.6 |
| 20260905061529 | 74 | 270 | 0.0 | 2.0 | 0.01 | 0.15 | 0.06 | 91 | 1010.0 |
| 20260905060058 | 74 | 39 | 0.0 | 2.0 | 0.00 | 0.14 | 0.05 | 91 | 1009.9 |
| 20260905054531 | 74 | 323 | 0.0 | 2.0 | 0.01 | 0.14 | 0.05 | 90 | 1009.8 |
| 20260905053102 | 75 | 358 | 0.0 | 3.0 | 0.03 | 0.14 | 0.05 | 90 | 1009.9 |
| 20260905051532 | 75 | 156 | 1.0 | 3.0 | 0.05 | 0.14 | 0.05 | 90 | 1010.0 |
| 20260905050009 | 75 | 284 | 0.0 | 4.0 | 0.05 | 0.14 | 0.05 | 89 | 1010.1 |
| 20260905044549 | 76 | 58 | 1.0 | 4.0 | 0.04 | 0.13 | 0.04 | 88 | 1010.0 |
| 20260905043018 | 78 | 131 | 1.0 | 5.0 | 0.02 | 0.11 | 0.02 | 87 | 1010.1 |
| 20260905041558 | 78 | 181 | 0.0 | 1.0 | 0.00 | 0.09 | 0.00 | 86 | 1010.0 |
| 20260905040031 | 78 | 333 | 0.0 | 0.0 | 0.00 | 0.09 | 0.00 | 87 | 1009.9 |
| 20260905034617 | 78 | 340 | 0.0 | 0.0 | 0.00 | 0.09 | 0.09 | 87 | 1010.0 |
| 20260905033040 | 78 | 338 | 0.0 | 0.0 | 0.00 | 0.09 | 0.09 | 86 | 1010.1 |
| 20260905031504 | 78 | 337 | 0.0 | 0.0 | 0.00 | 0.09 | 0.09 | 86 | 1010.3 |
| 20260905030046 | 78 | 337 | 0.0 | 0.0 | 0.00 | 0.09 | 0.09 | 86 | 1010.4 |
| 20260905024513 | 79 | 337 | 0.0 | 0.0 | 0.00 | 0.09 | 0.09 | 85 | 1010.3 |
| 20260905023059 | 79 | 336 | 0.0 | 0.0 | 0.00 | 0.09 | 0.09 | 85 | 1010.3 |
| 20260905021535 | 79 | 330 | 0.0 | 0.0 | 0.00 | 0.09 | 0.09 | 84 | 1010.2 |
| 20260905020108 | 79 | 331 | 0.0 | 0.0 | 0.00 | 0.09 | 0.09 | 84 | 1010.2 |
| 20260905014533 | 79 | 241 | 0.0 | 0.0 | 0.00 | 0.09 | 0.09 | 84 | 1010.4 |
| 20260905013008 | 78 | 144 | 0.0 | 0.0 | 0.00 | 0.09 | 0.09 | 83 | 1010.4 |
| 20260905011557 | 79 | 91 | 0.0 | 0.0 | 0.00 | 0.09 | 0.09 | 83 | 1010.3 |
| 20260905010025 | 79 | 77 | 0.0 | 0.0 | 0.00 | 0.09 | 0.09 | 82 | 1010.3 |
| 20260905004642 | 80 | 35 | 0.0 | 0.0 | 0.00 | 0.09 | 0.09 | 81 | 1010.4 |
| 20260905003028 | 80 | 35 | 0.0 | 0.0 | 0.00 | 0.09 | 0.09 | 79 | 1010.1 |
| 20260905001610 | 80 | 70 | 0.0 | 1.0 | 0.00 | 0.09 | 0.09 | 78 | 1010.0 |
| 20260905000047 | 81 | 23 | 0.0 | 0.0 | 0.00 | 0.09 | 0.09 | 76 | 1009.8 |
| 20260904234504 | 81 | 44 | 0.0 | 0.0 | 0.00 | 0.09 | 0.09 | 75 | 1009.6 |
| 20260904233052 | 81 | 357 | 0.0 | 1.0 | 0.00 | 0.09 | 0.09 | 75 | 1009.8 |
| 20260904231518 | 82 | 144 | 0.0 | 1.0 | 0.00 | 0.09 | 0.09 | 74 | 1009.9 |
| 20260904230109 | 82 | 98 | 0.0 | 1.0 | 0.00 | 0.09 | 0.09 | 73 | 1010.1 |
| 20260904224530 | 83 | 169 | 0.0 | 3.0 | 0.00 | 0.09 | 0.09 | 72 | 1010.3 |
| 20260904223002 | 83 | 49 | 0.0 | 2.0 | 0.00 | 0.09 | 0.09 | 71 | 1010.4 |
| 20260904221549 | 84 | 50 | 0.0 | 3.0 | 0.00 | 0.09 | 0.09 | 69 | 1010.3 |
| 20260904220012 | 84 | 27 | 0.0 | 6.0 | 0.00 | 0.09 | 0.09 | 68 | 1010.2 |
| 20260904214610 | 85 | 155 | 0.0 | 3.0 | 0.00 | 0.09 | 0.09 | 66 | 1010.2 |
| 20260904213039 | 86 | 50 | 0.0 | 4.0 | 0.00 | 0.09 | 0.09 | 66 | 1010.2 |
| 20260904211504 | 86 | 188 | 1.0 | 4.0 | 0.00 | 0.09 | 0.09 | 65 | 1010.1 |
| 20260904210050 | 87 | 120 | 1.0 | 5.0 | 0.00 | 0.09 | 0.09 | 64 | 1010.2 |
| 20260904204521 | 87 | 50 | 0.0 | 3.0 | 0.00 | 0.09 | 0.09 | 63 | 1010.1 |
| 20260904203104 | 87 | 157 | 0.0 | 5.0 | 0.00 | 0.09 | 0.09 | 63 | 1010.1 |
| 20260904201533 | 87 | 165 | 1.0 | 6.0 | 0.00 | 0.09 | 0.09 | 62 | 1010.2 |
| 20260904200125 | 88 | 185 | 1.0 | 5.0 | 0.00 | 0.09 | 0.09 | 62 | 1010.5 |
| 20260904194602 | 88 | 183 | 1.0 | 6.0 | 0.00 | 0.09 | 0.09 | 60 | 1010.6 |
| 20260904193012 | 88 | 49 | 0.0 | 3.0 | 0.00 | 0.09 | 0.09 | 62 | 1010.7 |
| 20260904191553 | 87 | 79 | 1.0 | 5.0 | 0.00 | 0.09 | 0.09 | 63 | 1011.0 |
| 20260904190025 | 90 | 105 | 1.0 | 4.0 | 0.00 | 0.09 | 0.09 | 61 | 1011.0 |
| 20260904184615 | 90 | 49 | 0.0 | 4.0 | 0.00 | 0.09 | 0.09 | 60 | 1011.0 |
| 20260904183027 | 90 | 12 | 0.0 | 4.0 | 0.00 | 0.09 | 0.09 | 62 | 1011.2 |
| 20260904181616 | 89 | 34 | 0.0 | 3.0 | 0.00 | 0.09 | 0.09 | 62 | 1011.4 |
| 20260904180044 | 90 | 65 | 0.0 | 2.0 | 0.00 | 0.09 | 0.09 | 57 | 1011.4 |